User: anonymous   Login
Location: Unspecified
(0.0000°N, 0.0000°E)
Time: 05:22:38
(UTC+00:00)
Language:

QIANFAN-107 - Orbit

View from above orbital plane
View from above orbital plane
View from above satellite
View from above satellite

Ground track
Ground track

The orbit is defined by the following mean orbital elements,

1 66049U          26145.46178598 +.00000000 +00000-0 +18738-3 0 00004
2 66049  89.0029  45.4810 0002140  70.1072 290.0310 13.51005876    02
Epoch (UTC): 25 May 2026 11:04:58
Eccentricity: 0.0002140
inclination: 89.0029°
perigee height: 1067 km
apogee height: 1070 km
right ascension of ascending node: 45.4810°
argument of perigee: 70.1072°
revolutions per day: 13.51005876
mean anomaly at epoch: 290.0310°

The dashed part of the orbit path shows where the satellite is in the earth's shadow,  

DLR